User: anonymous   Login
Location: Newark
(7.1028°S, 35.3258°W)
Time: 10:51:49
(UTC+00:00)
Language:

Courier 1B Rocket - Orbit

View from above orbital plane
View from above orbital plane
View from above satellite
View from above satellite

Ground track
Ground track

The orbit data is extracted from the following two-line orbital elements,

1    59U 60013B   20048.68531010 +.00000086 +00000-0 -48616-6 0  9998
2    59 028.2488 118.5613 0189309 352.5621 007.2137 13.52974570930237
Epoch (UTC): 17 February 2020 16:26:50
Eccentricity: 0.0189309
inclination: 28.2488°
perigee height: 920 km
apogee height: 1202 km
right ascension of ascending node: 118.5613°
argument of perigee: 352.5621°
revolutions per day: 13.52974570
mean anomaly at epoch: 7.2137°
orbit number at epoch: 93023

The dashed part of the orbit path shows where the satellite is in the earth's shadow,  

DLR